Location: Gand�
(15.0971°N, 12.6564°W)
Time: 15:24:07
(UTC+00:00)

Cosmos 2278 Rocket - Pass Details

Date: 07 August 2020
Orbit: 842 x 844 km, 71.0° (Epoch: 19 September)

Event Time Altitude Azimuth Distance (km) Brightness Sun altitude
Rises 05:42:25 0° 178° (S) 3,389 5.1 -12.8°
Reaches altitude 10° 05:45:01 10° 170° (S) 2,455 4.5 -12.2°
Maximum altitude 05:50:11 38° 104° (ESE) 1,267 3.7 -11.0°
Drops below altitude 10° 05:55:21 10° 37° (NE) 2,457 5.6 -9.8°
Sets 05:57:56 0° 30° (NNE) 3,393 6.2 -9.3°
